Weather in Ascot

United Kingdom     51°24′38″N   0°40′04″E
temp.,
°C
wind,
m/s
gust,
m/s
humid.,
%
clouds,
%
prec.,
mm/h
press.,
hPa
HPBL,
m
14 may, fri
fri1401:00+6nne349725 0.1 100884
04:00+6nne389777 0.0 1008226
07:00+8nne4993100 0.0 1009492
10:00+9nne468290 0.0 1010614
13:00+10ne3374100 0.1 1010670
16:00+12ne226817 0.0 1009819
19:00+12ese127017 0.1 1008799
22:00+8ssw2593100 0.3 1007118
15 may, sat
sat1501:00+7s2593100 0.3 1006156
04:00+7sse2698100 0.0 1004164
07:00+8s3697100 0.9 1002354
10:00+7sse3796100 1.2 1001500
13:00+12sw247657 1.7 1000974
16:00+11wsw6885100 1.6 1000746
19:00+11sw598990 2.1 999599
22:00+9sw3996100 2.3 1000265
16 may, sun
sun1601:00+6sw399787 2.7 1000205
04:00+5sw3898100 0.0 999179
07:00+7ssw3895100 0.0 999268
10:00+12ssw5678100 0.4 9991143
13:00+11ssw7986100 2.2 998891
16:00+11sw51091100 1.4 997744
19:00+11sw4892100 5.6 997497
22:00+9wsw249790 1.4 99794
17 may, mon
mon1701:00+7w38967 1.6 998154
04:00+6w48977 0.0 1000157
07:00+7wnw389426 0.1 1002242
10:00+12nw467869 0.0 1003721
13:00+14wnw5568100 0.6 10041387
16:00+13wnw467899 2.0 1005877
19:00+12wnw5985100 4.1 1006530
22:00+7wnw5129224 0.5 1009309
18 may, tue
tue1801:00+5w4109413 0.5 1011223
04:00+5w51294100 0.0 1012270
07:00+7w4109167 0.0 1013360
10:00+12w69635 0.0 10141128
13:00+13wsw687076 0.4 10141396
16:00+10sw61092100 1.9 1014729
19:00+9sw4995100 2.3 1013481
22:00+8sw389781 0.0 1013272